Temp
-22 -22 -22 -22 -22 -22 -22 -22 -22 -22 -22 -22 -21 -21 -21 -20 -20 -19 -19 -18 -18 -18 -18 -18 -17 -17 -16 -16 -16 -15 -15 -15 -15 -15 -15 -14 -14 -14 -14 -13 -13 -12 -11 -11 -10 -10 -10 -9 -9 -9 -9 -9 -9 -9 -9 -8 -8 -8 -8 -8 -7 -7 -7
-22 -22 -22 -22 -22 -22 -22 -22 -22 -22 -22 -22 -22 -22 -21 -21 -21 -20 -20 -19 -19 -19 -19 -18 -18 -18 -17 -17 -17 -16 -16 -16 -15 -15 -15 -15 -14 -14 -14 -14 -13 -13 -12 -12 -11 -11 -11 -10 -10 -10 -9 -9 -9 -9 -9 -9 -9 -8 -8 -8 -8 -8 -8
-23 -23 -23 -23 -23 -23 -23 -23 -23 -23 -23 -23 -23 -22 -22 -22 -22 -21 -21 -20 -20 -19 -19 -19 -19 -18 -18 -18 -18 -17 -17 -17 -16 -16 -16 -15 -15 -15 -14 -14 -14 -14 -13 -12 -12 -12 -12 -11 -11 -11 -10 -10 -10 -9 -9 -9 -9 -9 -9 -9 -8 -8 -8
-23 -23 -23 -23 -23 -23 -23 -23 -23 -23 -23 -23 -23 -23 -23 -23 -22 -22 -22 -21 -21 -20 -20 -20 -19 -19 -19 -19 -18 -18 -18 -18 -17 -17 -16 -16 -16 -15 -15 -14 -14 -14 -14 -13 -13 -13 -12 -12 -12 -12 -11 -11 -10 -10 -10 -10 -10 -10 -9 -9 -9 -9 -9
-24 -24 -24 -23 -24 -24 -23 -23 -23 -23 -23 -24 -23 -23 -23 -23 -23 -23 -23 -22 -22 -21 -21 -20 -20 -19 -19 -19 -19 -19 -19 -18 -18 -18 -17 -17 -17 -16 -16 -15 -15 -14 -14 -14 -13 -13 -13 -13 -13 -12 -12 -12 -11 -11 -11 -11 -10 -10 -10 -10 -10 -9 -9
-24 -24 -24 -24 -24 -24 -24 -24 -24 -24 -24 -24 -24 -24 -24 -23 -23 -23 -23 -23 -22 -22 -22 -21 -21 -20 -20 -20 -20 -20 -19 -19 -19 -19 -18 -18 -18 -17 -17 -16 -15 -15 -14 -14 -14 -14 -14 -14 -13 -13 -13 -13 -12 -12 -11 -11 -11 -11 -11 -10 -10 -10 -10
-25 -24 -24 -24 -24 -24 -24 -24 -24 -24 -24 -24 -24 -24 -24 -24 -23 -23 -23 -23 -23 -23 -22 -22 -22 -21 -21 -21 -21 -20 -20 -20 -20 -19 -19 -19 -19 -18 -18 -18 -17 -16 -15 -15 -15 -15 -15 -15 -14 -14 -14 -14 -13 -13 -13 -12 -12 -12 -11 -11 -11 -11 -11
-25 -25 -25 -25 -25 -25 -24 -24 -24 -24 -24 -24 -24 -24 -24 -24 -24 -23 -23 -23 -23 -23 -23 -22 -22 -22 -22 -22 -21 -21 -21 -21 -20 -20 -20 -20 -19 -19 -19 -19 -19 -18 -17 -16 -16 -15 -15 -15 -15 -15 -14 -14 -14 -14 -14 -13 -13 -13 -12 -12 -12 -12 -12
-25 -25 -25 -25 -25 -25 -25 -25 -25 -25 -25 -25 -25 -24 -24 -24 -24 -24 -23 -23 -23 -23 -23 -23 -22 -22 -22 -22 -22 -22 -21 -21 -21 -21 -21 -20 -20 -20 -19 -19 -19 -19 -19 -18 -17 -17 -16 -16 -16 -15 -15 -15 -15 -15 -14 -14 -14 -13 -13 -13 -13 -12 -12
-25 -25 -25 -25 -25 -25 -25 -25 -25 -25 -25 -25 -25 -25 -24 -24 -24 -24 -24 -23 -23 -23 -23 -23 -23 -23 -22 -22 -22 -22 -22 -22 -21 -21 -21 -21 -21 -20 -20 -20 -20 -20 -20 -19 -18 -18 -18 -17 -17 -16 -16 -16 -16 -15 -15 -15 -14 -14 -14 -14 -14 -13 -13
-26 -26 -26 -26 -26 -26 -25 -25 -25 -25 -25 -25 -25 -25 -25 -24 -24 -24 -24 -23 -23 -23 -23 -23 -23 -23 -23 -23 -23 -22 -22 -22 -22 -22 -22 -22 -21 -21 -21 -21 -21 -21 -20 -20 -19 -19 -18 -18 -18 -17 -17 -17 -16 -16 -16 -16 -15 -15 -15 -15 -14 -14 -14
-26 -26 -26 -26 -26 -26 -26 -26 -26 -26 -26 -25 -25 -25 -25 -24 -24 -24 -24 -24 -23 -23 -23 -23 -23 -23 -23 -23 -23 -23 -23 -23 -23 -22 -22 -22 -22 -22 -22 -21 -21 -21 -21 -20 -20 -19 -19 -19 -18 -18 -18 -17 -17 -17 -16 -16 -16 -16 -16 -15 -15 -15 -15
-27 -27 -27 -26 -26 -26 -26 -26 -26 -26 -26 -25 -25 -25 -25 -25 -24 -24 -24 -24 -24 -24 -23 -23 -23 -24 -24 -24 -24 -24 -23 -23 -23 -23 -23 -22 -22 -22 -22 -22 -22 -22 -21 -21 -21 -20 -20 -19 -19 -18 -18 -18 -17 -17 -17 -17 -17 -16 -16 -16 -16 -16 -15
-27 -27 -27 -27 -27 -27 -26 -26 -26 -26 -26 -26 -25 -25 -25 -25 -25 -24 -24 -24 -24 -24 -24 -24 -24 -25 -25 -25 -24 -24 -24 -23 -23 -23 -23 -23 -23 -23 -23 -22 -22 -22 -22 -22 -21 -21 -21 -20 -20 -19 -19 -18 -18 -18 -18 -17 -17 -17 -17 -16 -16 -16 -16
-27 -27 -27 -27 -27 -27 -27 -26 -26 -26 -26 -26 -26 -26 -26 -25 -25 -25 -24 -24 -24 -24 -24 -25 -25 -26 -26 -25 -25 -25 -25 -24 -24 -24 -24 -24 -24 -23 -23 -23 -23 -22 -22 -22 -22 -21 -21 -21 -20 -20 -19 -19 -19 -18 -18 -18 -18 -18 -17 -17 -17 -17 -16
-28 -27 -27 -27 -27 -27 -27 -27 -26 -26 -26 -26 -26 -26 -26 -25 -25 -25 -25 -25 -25 -25 -26 -27 -27 -27 -26 -26 -26 -25 -25 -25 -24 -24 -25 -25 -24 -24 -24 -23 -23 -23 -22 -22 -22 -22 -21 -21 -21 -20 -20 -20 -20 -19 -19 -19 -19 -18 -18 -18 -18 -18 -17
-28 -28 -28 -27 -27 -27 -27 -27 -27 -26 -26 -26 -27 -27 -26 -26 -26 -26 -26 -26 -27 -27 -27 -28 -27 -27 -27 -27 -27 -26 -25 -25 -25 -25 -25 -25 -25 -25 -24 -24 -23 -23 -23 -22 -22 -22 -22 -21 -21 -21 -20 -20 -20 -20 -20 -19 -19 -19 -19 -19 -18 -18 -18
-28 -28 -28 -27 -27 -27 -27 -27 -27 -27 -27 -27 -28 -28 -27 -27 -27 -27 -28 -28 -28 -28 -28 -28 -28 -28 -28 -28 -27 -26 -25 -25 -25 -26 -26 -26 -25 -25 -25 -24 -24 -23 -23 -23 -22 -22 -22 -22 -21 -21 -21 -21 -20 -20 -20 -20 -20 -19 -19 -19 -19 -19 -19
-28 -28 -28 -28 -27 -27 -27 -27 -27 -27 -27 -28 -28 -28 -28 -28 -28 -28 -28 -28 -28 -28 -29 -29 -29 -29 -28 -28 -28 -27 -25 -25 -26 -27 -27 -26 -26 -25 -25 -25 -24 -24 -23 -23 -23 -23 -23 -22 -22 -21 -21 -21 -21 -21 -20 -20 -20 -20 -20 -20 -20 -19 -19
-28 -28 -28 -28 -28 -28 -28 -28 -28 -28 -28 -28 -28 -28 -28 -28 -28 -28 -29 -29 -29 -29 -29 -29 -29 -29 -29 -29 -28 -27 -26 -26 -27 -28 -27 -26 -26 -26 -25 -25 -25 -24 -24 -24 -23 -23 -23 -23 -22 -22 -22 -21 -21 -21 -21 -21 -21 -20 -20 -20 -20 -20 -20
-28 -28 -28 -28 -28 -28 -28 -28 -28 -28 -28 -29 -28 -28 -28 -28 -29 -29 -29 -30 -30 -30 -30 -29 -29 -29 -29 -29 -28 -27 -27 -27 -27 -27 -27 -27 -26 -26 -26 -25 -25 -25 -25 -24 -24 -24 -23 -23 -23 -23 -22 -22 -22 -22 -22 -22 -21 -21 -21 -21 -21 -21 -20
-28 -28 -28 -28 -28 -28 -28 -28 -28 -28 -29 -29 -29 -28 -28 -29 -29 -30 -30 -30 -30 -30 -29 -29 -29 -29 -29 -28 -28 -28 -27 -27 -27 -27 -27 -27 -27 -26 -26 -26 -25 -25 -25 -25 -24 -24 -24 -24 -24 -23 -23 -23 -23 -23 -22 -22 -22 -22 -22 -22 -21 -21 -21
-28 -28 -28 -28 -28 -28 -28 -28 -29 -29 -29 -29 -29 -28 -29 -29 -30 -30 -30 -30 -29 -29 -29 -29 -29 -29 -29 -28 -28 -28 -28 -28 -27 -27 -27 -27 -27 -26 -26 -26 -26 -25 -25 -25 -25 -24 -24 -24 -24 -24 -24 -23 -23 -23 -23 -23 -23 -22 -22 -22 -22 -22 -21
-28 -28 -28 -28 -29 -29 -29 -29 -29 -29 -29 -29 -29 -29 -29 -29 -30 -30 -30 -30 -29 -29 -29 -29 -29 -29 -28 -28 -28 -28 -28 -28 -27 -27 -27 -27 -27 -26 -26 -26 -26 -25 -25 -25 -25 -25 -24 -24 -24 -24 -24 -24 -23 -23 -23 -23 -23 -23 -23 -23 -22 -22 -22
-28 -28 -28 -28 -29 -29 -29 -29 -29 -29 -29 -29 -29 -29 -29 -29 -29 -29 -30 -29 -29 -29 -29 -29 -28 -28 -28 -28 -28 -28 -28 -27 -27 -27 -27 -27 -26 -26 -26 -26 -26 -26 -26 -25 -25 -25 -25 -25 -25 -24 -24 -24 -24 -24 -24 -23 -23 -23 -23 -23 -23 -23 -23
-28 -28 -28 -28 -29 -29 -29 -29 -29 -29 -29 -29 -29 -29 -29 -29 -29 -29 -29 -29 -29 -29 -29 -28 -28 -28 -28 -28 -28 -28 -28 -27 -27 -27 -27 -27 -27 -27 -26 -26 -26 -26 -26 -26 -26 -26 -25 -25 -25 -25 -25 -25 -24 -24 -24 -24 -24 -24 -24 -24 -23 -23 -23
-28 -28 -28 -28 -29 -29 -29 -29 -29 -29 -29 -29 -29 -29 -29 -28 -28 -29 -29 -29 -29 -28 -28 -28 -28 -28 -28 -28 -28 -28 -28 -28 -27 -27 -27 -27 -27 -27 -27 -27 -27 -26 -26 -26 -26 -26 -26 -26 -26 -25 -25 -25 -25 -25 -24 -24 -24 -24 -24 -24 -24 -24 -24
-28 -28 -28 -28 -28 -29 -29 -29 -29 -29 -29 -29 -29 -29 -28 -28 -28 -29 -29 -28 -28 -28 -28 -28 -28 -28 -28 -28 -28 -28 -28 -28 -28 -28 -27 -27 -27 -27 -27 -27 -27 -27 -26 -26 -26 -26 -26 -26 -26 -26 -25 -25 -25 -25 -25 -25 -25 -25 -24 -24 -24 -24 -24
-28 -28 -28 -28 -28 -28 -29 -29 -29 -29 -29 -29 -29 -29 -28 -28 -28 -29 -29 -28 -28 -28 -28 -28 -28 -28 -28 -28 -28 -28 -28 -28 -28 -28 -27 -27 -27 -27 -27 -27 -27 -27 -26 -26 -26 -26 -26 -26 -26 -26 -26 -26 -26 -25 -25 -25 -25 -25 -25 -25 -25 -25 -25
-28 -28 -28 -28 -28 -28 -28 -29 -29 -29 -28 -28 -29 -28 -28 -28 -29 -29 -28 -28 -28 -28 -28 -28 -28 -28 -28 -28 -28 -28 -28 -28 -28 -28 -27 -27 -27 -27 -27 -27 -27 -27 -26 -26 -26 -26 -26 -26 -26 -26 -26 -26 -25 -25 -25 -25 -25 -25 -25 -25 -25 -25 -25
-28 -28 -28 -28 -28 -28 -28 -28 -29 -28 -28 -28 -28 -28 -28 -28 -29 -29 -28 -28 -28 -28 -28 -28 -28 -28 -28 -28 -28 -28 -28 -28 -28 -27 -27 -27 -27 -27 -27 -27 -27 -27 -27 -26 -26 -26 -26 -26 -26 -26 -25 -25 -25 -25 -25 -25 -25 -25 -25 -25 -25 -25 -25
-28 -28 -28 -28 -28 -28 -28 -28 -29 -28 -28 -28 -28 -28 -28 -28 -28 -28 -28 -28 -28 -28 -28 -28 -28 -28 -28 -28 -28 -28 -28 -28 -27 -27 -27 -27 -27 -27 -27 -27 -27 -27 -27 -26 -26 -26 -26 -26 -26 -26 -25 -25 -25 -25 -25 -25 -25 -25 -25 -25 -25 -25 -25
-28 -28 -28 -28 -28 -28 -28 -28 -28 -28 -28 -28 -28 -28 -28 -28 -28 -28 -28 -28 -28 -28 -28 -28 -28 -28 -28 -28 -28 -28 -28 -28 -27 -27 -27 -27 -27 -27 -27 -27 -27 -27 -26 -26 -26 -26 -26 -26 -26 -26 -26 -25 -25 -25 -25 -25 -25 -25 -25 -25 -25 -25 -25
-27 -28 -28 -29 -28 -28 -28 -28 -28 -28 -28 -28 -28 -28 -29 -29 -28 -28 -28 -28 -28 -28 -28 -28 -28 -28 -28 -28 -28 -28 -28 -28 -27 -27 -27 -27 -27 -27 -27 -27 -27 -27 -26 -26 -26 -26 -26 -26 -26 -26 -26 -26 -26 -26 -26 -25 -25 -25 -25 -25 -25 -25 -25
-27 -27 -28 -28 -28 -29 -28 -28 -28 -28 -28 -28 -28 -28 -28 -29 -28 -28 -28 -28 -28 -28 -28 -28 -28 -28 -28 -28 -28 -28 -28 -27 -27 -27 -27 -27 -27 -27 -27 -27 -27 -26 -26 -26 -26 -26 -26 -26 -26 -26 -26 -26 -26 -26 -26 -25 -25 -25 -25 -25 -25 -25 -25
-27 -27 -28 -28 -28 -28 -28 -28 -28 -28 -28 -28 -28 -28 -28 -28 -28 -28 -28 -28 -28 -28 -28 -28 -28 -28 -28 -28 -28 -28 -27 -27 -27 -27 -27 -27 -27 -27 -27 -27 -27 -26 -26 -26 -26 -26 -26 -26 -26 -26 -26 -26 -26 -26 -26 -25 -25 -25 -25 -25 -25 -25 -25
Height
2919 2918 2916 2915 2913 2912 2911 2909 2908 2907 2905 2904 2902 2901 2900 2899 2898 2898 2897 2897 2898 2898 2898 2898 2899 2900 2901 2902 2903 2905 2906 2907 2910 2912 2914 2916 2917 2919 2920 2922 2923 2922 2926 2929 2931 2934 2936 2938 2941 2942 2943 2945 2947 2949 2951 2954 2957 2960 2962 2965 2968 2970 2972
2914 2912 2911 2910 2908 2906 2905 2904 2903 2901 2900 2898 2897 2896 2894 2893 2892 2891 2891 2891 2891 2891 2891 2891 2892 2892 2893 2895 2896 2897 2898 2899 2901 2903 2906 2909 2910 2912 2914 2916 2917 2917 2919 2922 2924 2926 2928 2930 2933 2935 2937 2938 2940 2942 2944 2946 2949 2952 2955 2957 2960 2962 2964
2908 2906 2905 2904 2902 2901 2899 2898 2897 2896 2895 2893 2892 2890 2889 2888 2886 2885 2885 2884 2885 2884 2884 2885 2885 2886 2886 2887 2888 2889 2891 2892 2894 2895 2897 2900 2902 2904 2907 2909 2911 2911 2913 2915 2917 2918 2920 2923 2926 2928 2930 2932 2933 2936 2938 2940 2942 2945 2948 2950 2952 2954 2956
2901 2900 2899 2898 2897 2895 2894 2892 2891 2890 2889 2888 2886 2885 2884 2882 2881 2880 2879 2878 2878 2878 2878 2878 2879 2879 2880 2880 2881 2882 2883 2884 2886 2888 2889 2891 2894 2896 2899 2902 2904 2905 2907 2909 2911 2911 2914 2916 2918 2920 2922 2924 2927 2929 2931 2933 2936 2938 2941 2943 2945 2947 2948
2895 2893 2892 2892 2891 2890 2889 2887 2886 2885 2883 2882 2881 2879 2878 2876 2875 2874 2873 2872 2872 2872 2871 2872 2872 2873 2873 2873 2874 2874 2875 2877 2879 2880 2882 2884 2885 2888 2891 2893 2896 2899 2901 2903 2904 2906 2908 2909 2911 2913 2915 2917 2920 2922 2925 2927 2929 2931 2934 2936 2937 2939 2941
2889 2887 2886 2886 2885 2884 2883 2882 2880 2879 2878 2876 2875 2873 2872 2871 2870 2869 2868 2867 2867 2866 2865 2866 2866 2867 2866 2866 2867 2867 2869 2870 2872 2873 2874 2876 2878 2880 2883 2885 2888 2891 2893 2896 2898 2900 2901 2903 2904 2906 2908 2910 2913 2915 2918 2920 2922 2924 2927 2929 2930 2932 2934
2883 2882 2880 2880 2879 2878 2877 2876 2875 2873 2872 2871 2869 2867 2866 2865 2864 2863 2862 2862 2861 2861 2860 2860 2860 2861 2860 2860 2860 2861 2862 2864 2865 2866 2867 2869 2871 2873 2875 2878 2880 2883 2886 2888 2891 2893 2894 2896 2898 2900 2901 2904 2906 2909 2911 2914 2916 2918 2920 2922 2923 2925 2928
2877 2876 2874 2873 2872 2871 2871 2870 2869 2868 2866 2865 2863 2861 2860 2859 2859 2858 2857 2856 2856 2856 2855 2855 2855 2855 2855 2855 2854 2855 2856 2857 2858 2859 2861 2862 2865 2867 2869 2871 2873 2876 2878 2880 2883 2885 2887 2890 2892 2893 2895 2897 2900 2902 2905 2907 2909 2911 2913 2915 2917 2919 2922
2871 2869 2868 2867 2866 2865 2864 2863 2862 2861 2860 2859 2857 2856 2855 2854 2853 2852 2851 2851 2851 2850 2850 2850 2849 2849 2849 2849 2849 2850 2851 2851 2852 2853 2854 2856 2858 2860 2862 2864 2866 2869 2872 2874 2876 2878 2880 2883 2885 2887 2889 2890 2893 2895 2898 2901 2903 2904 2906 2908 2910 2913 2915
2864 2863 2862 2861 2859 2858 2858 2857 2856 2855 2854 2853 2851 2850 2849 2849 2848 2847 2846 2846 2846 2845 2845 2845 2844 2844 2843 2843 2844 2844 2845 2846 2846 2847 2848 2850 2852 2854 2856 2858 2860 2862 2865 2867 2869 2871 2873 2875 2877 2880 2882 2884 2886 2888 2891 2894 2896 2898 2900 2901 2904 2906 2907
2858 2857 2856 2854 2853 2853 2851 2851 2850 2849 2848 2847 2846 2844 2843 2843 2842 2842 2841 2841 2841 2840 2840 2839 2839 2838 2838 2838 2838 2839 2840 2841 2841 2841 2843 2844 2846 2848 2850 2852 2853 2856 2858 2861 2863 2865 2867 2869 2871 2873 2875 2878 2880 2882 2884 2887 2889 2891 2893 2894 2896 2898 2899
2852 2851 2850 2848 2848 2847 2846 2845 2844 2843 2842 2841 2840 2839 2838 2837 2837 2836 2836 2836 2836 2835 2835 2834 2833 2833 2832 2832 2833 2834 2835 2835 2836 2836 2837 2839 2840 2842 2844 2845 2847 2849 2851 2854 2856 2858 2860 2862 2864 2866 2869 2871 2873 2875 2877 2880 2881 2884 2886 2887 2890 2891 2891
2846 2845 2843 2842 2842 2841 2840 2840 2838 2837 2837 2836 2835 2834 2832 2831 2831 2831 2831 2831 2830 2830 2829 2829 2828 2828 2827 2827 2827 2828 2829 2830 2831 2831 2832 2833 2834 2836 2837 2839 2841 2843 2844 2847 2849 2851 2853 2855 2858 2860 2863 2865 2867 2869 2871 2872 2874 2877 2878 2880 2882 2883 2885
2840 2839 2838 2837 2836 2835 2835 2834 2833 2832 2831 2830 2829 2828 2826 2825 2826 2826 2826 2825 2824 2824 2823 2823 2823 2823 2822 2821 2822 2823 2823 2825 2826 2826 2827 2828 2828 2829 2831 2833 2835 2837 2838 2840 2842 2844 2846 2849 2852 2854 2857 2859 2861 2863 2864 2866 2867 2869 2872 2873 2875 2876 2879
2834 2833 2832 2831 2830 2830 2829 2829 2827 2827 2826 2825 2824 2822 2820 2820 2820 2820 2820 2819 2818 2818 2818 2817 2818 2817 2817 2817 2817 2817 2818 2819 2821 2822 2822 2822 2823 2824 2825 2827 2829 2831 2832 2834 2836 2838 2841 2843 2846 2849 2852 2854 2856 2857 2858 2860 2861 2863 2865 2867 2868 2869 2872
2829 2828 2827 2826 2825 2824 2824 2823 2822 2821 2820 2819 2818 2815 2814 2814 2813 2813 2813 2813 2812 2813 2812 2812 2813 2813 2812 2812 2812 2812 2813 2815 2816 2817 2817 2817 2818 2819 2821 2822 2823 2825 2827 2829 2831 2833 2835 2838 2841 2843 2847 2849 2850 2851 2852 2854 2855 2857 2859 2860 2861 2862 2864
2824 2823 2822 2821 2820 2819 2818 2817 2816 2815 2814 2813 2811 2809 2808 2808 2807 2807 2807 2807 2808 2808 2808 2808 2808 2808 2808 2808 2808 2807 2809 2810 2811 2812 2812 2813 2814 2815 2816 2817 2818 2820 2822 2824 2826 2828 2829 2832 2834 2837 2840 2842 2843 2844 2846 2848 2849 2851 2853 2854 2855 2855 2857
2819 2818 2817 2815 2814 2813 2812 2812 2810 2809 2808 2807 2806 2804 2803 2803 2803 2803 2803 2804 2804 2804 2804 2804 2805 2805 2804 2804 2804 2803 2804 2805 2807 2808 2809 2809 2810 2811 2811 2812 2814 2815 2817 2819 2821 2823 2824 2826 2829 2832 2834 2836 2837 2839 2841 2842 2843 2845 2847 2848 2849 2849 2850
2813 2813 2812 2810 2809 2808 2807 2806 2804 2803 2803 2803 2801 2799 2799 2800 2800 2800 2800 2800 2800 2801 2801 2801 2801 2801 2801 2801 2800 2799 2799 2802 2804 2805 2805 2805 2805 2806 2807 2808 2810 2811 2812 2814 2816 2818 2820 2821 2824 2826 2828 2830 2832 2833 2835 2836 2837 2839 2840 2842 2843 2843 2844
2808 2808 2807 2805 2804 2803 2802 2801 2800 2799 2799 2798 2797 2796 2797 2797 2797 2797 2797 2797 2797 2797 2797 2797 2798 2798 2798 2798 2797 2795 2796 2800 2803 2802 2801 2801 2802 2803 2804 2805 2806 2807 2808 2810 2812 2814 2815 2817 2819 2821 2823 2824 2826 2828 2829 2830 2832 2833 2834 2836 2837 2838 2839
2803 2803 2802 2801 2800 2799 2798 2797 2796 2796 2795 2794 2794 2794 2794 2794 2794 2794 2794 2794 2794 2794 2795 2795 2795 2796 2796 2796 2795 2793 2795 2798 2800 2799 2798 2798 2799 2800 2801 2802 2803 2804 2805 2807 2808 2810 2812 2813 2815 2816 2818 2819 2821 2822 2824 2825 2827 2828 2829 2830 2831 2833 2834
2799 2799 2798 2797 2796 2795 2794 2794 2794 2793 2792 2792 2791 2791 2792 2792 2792 2792 2792 2792 2792 2792 2792 2793 2793 2793 2793 2793 2793 2793 2794 2795 2796 2796 2796 2796 2797 2798 2798 2799 2800 2801 2802 2804 2805 2807 2808 2810 2811 2813 2814 2815 2817 2818 2819 2821 2822 2824 2825 2826 2827 2828 2829
2796 2796 2795 2794 2794 2793 2792 2792 2791 2791 2790 2790 2789 2789 2790 2791 2790 2790 2790 2790 2790 2790 2790 2791 2791 2791 2791 2791 2791 2792 2792 2792 2793 2793 2794 2794 2794 2795 2796 2797 2798 2799 2800 2801 2803 2804 2805 2807 2808 2810 2811 2812 2813 2815 2816 2817 2818 2819 2821 2822 2823 2823 2824
2794 2794 2793 2792 2792 2791 2790 2790 2789 2789 2789 2788 2788 2788 2789 2789 2789 2789 2788 2788 2788 2788 2788 2788 2788 2789 2789 2789 2790 2790 2790 2790 2791 2791 2792 2792 2793 2793 2794 2795 2796 2797 2798 2799 2800 2801 2803 2804 2805 2807 2808 2809 2810 2811 2812 2814 2815 2816 2817 2818 2819 2819 2820
2793 2792 2792 2791 2790 2790 2789 2789 2788 2788 2787 2787 2787 2787 2787 2788 2787 2787 2787 2787 2786 2787 2786 2786 2787 2787 2787 2788 2788 2788 2788 2789 2789 2789 2790 2790 2791 2792 2792 2793 2794 2795 2796 2797 2798 2799 2800 2801 2803 2804 2805 2806 2807 2808 2809 2810 2811 2812 2813 2814 2815 2816 2817
2792 2791 2790 2790 2789 2789 2788 2788 2787 2787 2786 2786 2785 2785 2785 2786 2786 2786 2786 2785 2785 2785 2785 2785 2785 2785 2786 2786 2786 2786 2787 2787 2787 2788 2788 2789 2790 2790 2791 2792 2793 2794 2795 2796 2797 2798 2799 2800 2801 2802 2803 2804 2805 2806 2807 2808 2809 2810 2810 2811 2812 2813 2814
2791 2790 2789 2789 2788 2788 2787 2787 2786 2786 2785 2785 2784 2784 2784 2784 2784 2784 2784 2783 2783 2783 2783 2783 2784 2784 2784 2785 2785 2785 2786 2786 2787 2787 2788 2788 2789 2790 2790 2791 2792 2793 2794 2795 2796 2797 2798 2799 2800 2801 2802 2803 2803 2804 2805 2806 2806 2807 2808 2809 2809 2810 2810
2790 2789 2789 2788 2788 2787 2787 2786 2786 2785 2785 2784 2784 2783 2783 2783 2783 2783 2782 2782 2782 2782 2782 2782 2782 2783 2783 2784 2784 2785 2785 2786 2786 2787 2788 2788 2789 2790 2790 2791 2792 2793 2794 2795 2796 2797 2798 2799 2800 2800 2801 2801 2802 2803 2803 2804 2804 2805 2805 2806 2806 2806 2807
2789 2788 2788 2787 2787 2786 2786 2785 2785 2784 2783 2783 2783 2782 2782 2782 2782 2781 2781 2781 2781 2781 2781 2781 2782 2782 2783 2783 2784 2784 2785 2786 2786 2787 2788 2788 2789 2790 2791 2791 2792 2793 2794 2795 2796 2797 2797 2798 2799 2799 2800 2800 2801 2801 2802 2802 2803 2803 2803 2804 2804 2804 2804
2788 2787 2787 2786 2786 2786 2785 2784 2784 2783 2782 2782 2782 2781 2781 2781 2781 2780 2780 2780 2780 2780 2781 2781 2781 2782 2782 2783 2784 2785 2785 2786 2787 2788 2788 2789 2789 2790 2791 2791 2792 2793 2794 2794 2795 2796 2796 2797 2798 2798 2799 2799 2800 2800 2801 2801 2801 2802 2802 2802 2802 2802 2802
2787 2786 2786 2785 2785 2785 2784 2783 2783 2782 2781 2781 2781 2780 2780 2780 2780 2779 2779 2780 2780 2780 2780 2781 2781 2782 2783 2783 2784 2785 2786 2787 2787 2788 2788 2789 2789 2790 2791 2791 2792 2792 2793 2793 2794 2795 2795 2796 2797 2797 2798 2798 2799 2799 2800 2800 2800 2800 2800 2800 2800 2800 2800
2787 2786 2785 2784 2783 2783 2783 2782 2782 2781 2780 2780 2779 2779 2779 2779 2779 2779 2779 2779 2779 2780 2780 2781 2782 2782 2783 2784 2785 2785 2786 2787 2787 2788 2788 2789 2789 2790 2790 2791 2791 2792 2792 2793 2793 2794 2794 2795 2796 2796 2797 2797 2798 2798 2798 2798 2799 2799 2798 2798 2798 2798 2797
2785 2785 2784 2783 2782 2782 2782 2781 2781 2780 2779 2779 2779 2778 2778 2778 2778 2778 2779 2779 2779 2780 2780 2781 2782 2783 2783 2784 2785 2785 2786 2787 2787 2788 2788 2788 2789 2789 2790 2790 2791 2791 2791 2792 2792 2793 2794 2794 2795 2795 2796 2796 2796 2797 2797 2797 2797 2797 2797 2796 2796 2796 2795
2784 2783 2783 2782 2781 2781 2780 2780 2780 2779 2779 2778 2778 2778 2778 2778 2778 2778 2778 2779 2779 2780 2781 2782 2782 2783 2784 2784 2785 2785 2786 2786 2787 2787 2788 2788 2788 2789 2789 2790 2790 2790 2791 2791 2792 2792 2793 2793 2794 2794 2795 2795 2795 2795 2795 2795 2795 2795 2795 2795 2795 2795 2794
2782 2782 2781 2781 2780 2780 2779 2779 2778 2778 2778 2777 2777 2777 2777 2777 2778 2778 2778 2779 2780 2780 2781 2782 2782 2783 2784 2784 2785 2785 2786 2786 2787 2787 2787 2788 2788 2788 2789 2789 2789 2790 2790 2791 2791 2792 2792 2793 2793 2794 2794 2794 2794 2794 2794 2794 2794 2794 2794 2795 2794 2794 2793
2781 2780 2780 2779 2779 2778 2778 2778 2777 2777 2777 2777 2777 2777 2777 2777 2777 2778 2779 2779 2780 2781 2781 2782 2782 2783 2784 2784 2785 2785 2786 2786 2786 2787 2787 2787 2788 2788 2788 2789 2789 2790 2790 2791 2791 2792 2792 2792 2793 2793 2793 2793 2793 2793 2793 2793 2793 2793 2794 2793 2793 2792 2791
Wind_Speed
38 39 40 41 41 40 39 38 38 38 38 39 40 41 42 43 44 46 46 47 47 47 47 48 49 49 49 50 51 52 53 53 53 54 55 55 55 55 55 54 54 57 60 60 58 58 57 55 55 53 51 49 49 51 54 57 59 60 60 60 59 58 58
40 42 43 43 42 41 41 40 39 39 39 40 40 41 41 42 43 44 45 46 46 46 47 47 48 48 48 48 48 49 51 52 52 52 53 54 55 55 54 53 54 55 57 59 58 57 56 55 55 56 55 53 50 48 48 49 51 53 55 57 57 58 59
43 46 47 45 42 42 42 42 41 40 40 41 42 42 41 41 41 42 43 44 44 45 46 46 47 48 48 47 47 47 48 49 50 51 51 52 54 56 55 53 52 53 55 57 57 56 56 55 53 54 55 55 53 51 49 48 48 48 50 52 54 55 55
47 49 49 44 42 42 42 42 42 42 42 43 43 42 41 40 39 40 42 42 42 43 44 45 46 47 47 46 46 46 46 46 48 49 50 50 51 54 56 55 53 51 52 55 56 55 54 53 52 51 52 53 54 52 51 50 50 49 49 50 52 54 55
48 49 47 44 43 43 43 43 43 43 44 45 44 42 40 39 39 39 39 40 40 40 41 43 44 45 45 45 45 45 45 45 45 47 48 49 49 50 52 56 56 54 51 51 53 53 52 51 49 49 49 51 52 52 52 52 52 52 51 51 52 54 56
45 46 46 44 44 45 44 44 44 45 45 45 44 43 41 39 38 38 38 38 37 38 39 40 41 42 43 44 45 45 44 45 44 44 45 46 48 48 49 51 55 57 55 52 50 50 50 50 49 48 48 48 49 50 51 51 52 53 53 53 52 52 53
43 44 45 45 46 46 45 45 46 46 45 45 44 43 41 38 37 37 37 36 36 35 36 37 38 39 40 42 43 44 43 43 43 42 43 44 45 46 48 49 50 54 57 57 54 50 48 48 48 49 48 47 46 46 46 47 48 50 51 52 52 52 51
44 45 46 47 47 47 47 48 47 46 45 45 44 42 39 37 36 36 36 35 35 34 34 34 35 36 37 39 41 42 42 42 41 41 41 42 43 44 45 47 48 49 52 55 56 54 51 49 48 48 48 47 46 45 45 45 46 47 49 50 51 51 50
47 48 48 49 49 50 49 49 48 46 45 44 42 40 38 36 36 36 35 35 34 34 33 33 33 34 35 37 38 39 40 40 40 40 40 40 41 42 43 45 46 46 47 50 53 54 54 52 50 48 47 47 47 46 46 46 46 47 48 49 50 50 50
49 50 50 50 50 50 49 48 46 45 43 41 40 39 37 36 36 36 35 34 34 34 33 32 32 33 34 35 36 36 37 38 39 39 39 39 40 41 42 42 44 45 46 46 48 50 51 51 50 49 48 48 47 46 46 46 46 47 48 49 50 51 52
47 47 47 47 46 45 44 44 43 42 40 40 39 39 38 38 37 36 35 34 33 33 34 33 33 33 33 34 34 35 35 36 37 38 38 38 38 39 40 41 41 43 45 45 45 46 48 49 49 49 49 49 48 47 47 46 46 47 48 49 50 51 53
44 43 42 42 41 41 40 40 40 40 39 39 38 38 38 38 37 36 36 35 34 34 34 34 34 34 33 33 33 33 34 35 36 37 37 38 38 38 39 40 40 41 43 44 44 44 45 46 47 48 48 49 49 49 49 48 48 48 48 48 49 50 52
42 41 40 40 39 38 38 38 38 38 38 38 37 37 38 38 37 37 37 36 36 35 35 35 34 33 33 33 33 33 33 34 35 36 36 37 38 38 38 39 40 41 42 44 44 45 45 45 46 47 48 49 49 50 50 49 49 49 49 49 49 50 51
40 39 38 38 37 37 36 36 37 36 36 36 36 37 38 38 38 38 37 37 37 37 36 35 33 32 32 33 34 34 34 34 34 34 35 35 36 37 37 38 39 40 41 43 45 46 46 46 46 46 47 48 48 48 49 49 49 50 50 50 50 50 51
38 37 37 37 37 36 36 36 36 36 36 36 37 37 38 39 38 38 38 38 38 37 36 33 31 30 31 32 33 33 33 33 33 33 33 33 34 35 35 36 38 39 40 42 44 46 47 47 48 48 47 46 46 46 47 47 47 48 48 48 49 49 50
37 37 37 37 37 37 36 37 37 37 37 38 37 37 38 38 38 38 38 38 36 34 32 30 29 28 28 30 31 33 33 32 32 31 31 31 31 32 33 34 36 37 39 40 41 43 44 46 46 47 47 46 46 46 47 47 47 47 48 48 48 49 50
37 37 37 37 38 38 37 37 37 37 37 37 35 34 36 36 36 36 35 33 31 28 27 26 26 26 26 27 29 31 32 31 30 29 28 28 28 29 31 32 33 34 36 37 38 39 40 42 43 44 45 45 46 47 48 49 50 50 50 50 51 51 52
35 36 37 37 37 37 37 37 37 36 35 33 31 31 32 32 30 29 28 26 24 23 23 23 23 23 23 24 26 29 31 30 27 24 24 25 26 27 28 29 30 31 32 33 34 35 36 38 40 41 41 42 43 44 45 46 48 48 48 48 49 50 51
34 34 35 36 36 36 35 34 33 32 30 27 27 28 27 25 24 23 23 22 21 21 20 21 20 20 21 22 24 28 30 27 22 19 20 23 24 25 26 27 27 28 29 30 31 31 32 33 35 36 37 38 39 39 40 42 43 43 44 45 45 46 46
33 33 33 33 32 32 30 29 28 26 24 23 24 24 23 21 20 20 19 19 18 18 18 18 19 19 19 19 22 27 27 20 15 16 20 22 23 23 23 24 24 25 26 26 27 28 28 29 30 31 32 34 35 35 36 37 38 39 40 41 41 42 43
31 30 29 27 26 25 24 24 23 22 21 21 21 20 18 17 16 16 16 15 15 16 17 17 17 17 18 19 22 25 23 15 12 16 20 21 20 20 20 21 22 23 23 24 24 24 24 25 26 26 28 29 30 30 31 32 32 34 35 35 36 37 38
24 23 22 21 21 21 21 20 19 18 17 18 18 17 15 13 13 12 12 13 14 15 16 16 16 16 17 18 20 20 18 14 13 16 18 18 18 18 18 19 19 20 20 20 20 20 21 21 21 22 23 23 24 25 26 26 27 28 29 30 31 32 33
18 17 17 17 17 17 17 16 15 15 15 16 16 14 11 10 10 10 11 13 14 15 15 15 15 16 16 17 17 15 14 13 13 13 14 16 16 16 16 16 16 16 17 17 17 17 17 18 18 18 19 20 21 22 22 23 23 24 24 25 27 28 29
15 15 14 14 14 14 14 14 14 14 14 14 15 13 8 7 9 11 12 14 15 15 14 14 15 15 15 14 14 13 12 12 11 11 12 13 13 13 13 13 14 14 14 14 14 15 15 15 15 16 16 17 18 18 19 19 19 19 19 20 21 22 22
13 13 12 12 12 12 12 12 13 13 13 13 14 12 8 7 9 10 12 14 15 14 14 14 13 13 13 12 12 11 11 10 9 9 10 10 10 10 11 11 12 12 12 12 12 12 12 12 12 12 12 12 13 13 14 14 14 14 14 15 16 17 17
12 12 11 11 11 11 11 11 12 12 13 13 13 12 10 8 8 9 10 12 13 13 13 13 12 11 11 11 10 9 8 7 7 7 7 8 8 8 8 8 9 8 8 8 8 8 8 8 8 8 9 9 9 10 10 10 11 11 12 13 14 15 16
12 11 11 11 10 10 10 10 10 11 12 13 13 13 12 10 8 8 10 12 12 12 11 11 11 9 8 7 7 6 5 5 6 6 6 6 6 7 7 7 7 7 7 7 7 7 7 7 7 7 7 7 8 8 9 10 10 11 12 13 14 15 16
12 11 11 10 9 9 9 9 10 10 11 12 13 13 12 10 8 8 10 11 11 10 9 9 8 7 6 5 5 5 5 6 6 7 7 7 7 7 7 7 7 7 7 7 7 6 6 6 6 6 6 7 8 8 9 10 11 11 12 13 14 15 16
11 11 11 10 9 8 8 9 10 10 11 11 12 12 11 9 8 8 9 9 8 8 7 6 6 5 4 5 5 6 7 8 8 8 8 8 8 7 7 6 6 6 6 6 6 6 6 6 6 6 7 8 8 8 9 9 10 10 11 11 13 14 15
11 12 12 11 10 8 8 8 9 10 10 10 11 12 11 9 7 8 8 7 7 6 5 5 5 5 5 6 7 8 8 8 8 7 7 6 6 5 5 5 5 5 5 5 5 5 6 6 6 6 7 7 7 7 7 7 8 9 10 11 12 13 15
10 12 13 13 11 9 8 8 8 9 10 9 10 11 10 7 6 6 6 5 5 5 5 5 5 6 7 8 8 8 7 7 6 6 5 5 4 4 4 4 4 4 4 4 4 5 5 5 5 5 5 5 5 5 5 6 7 8 9 11 12 14 14
10 11 13 13 12 10 8 7 8 10 9 8 9 10 9 6 5 5 5 4 4 4 5 6 7 7 7 7 7 6 6 5 5 4 4 4 4 4 4 4 3 3 3 4 3 3 3 3 3 3 3 3 3 4 5 6 7 9 10 11 12 12 12
11 11 12 13 12 11 9 7 8 9 9 8 8 9 9 7 5 3 3 4 4 5 6 7 7 7 6 6 5 5 4 4 3 3 3 3 3 3 3 3 3 3 3 3 3 3 2 2 1 1 2 3 4 5 6 7 7 8 9 9 9 9 10
12 10 11 11 11 11 10 9 9 9 9 8 7 7 7 6 5 3 4 5 6 7 7 6 6 6 6 5 5 4 3 3 3 3 3 3 3 3 3 3 4 3 3 3 3 2 1 1 1 1 2 3 4 5 6 7 7 7 6 6 7 8 11
13 11 10 10 10 10 11 10 10 9 8 7 7 7 6 5 4 5 6 7 7 6 5 5 5 5 5 5 4 4 3 3 3 3 3 3 3 3 4 4 4 4 3 3 2 2 1 1 0 1 2 3 5 5 6 5 5 4 3 4 7 10 13
14 12 10 10 10 10 10 10 9 9 8 7 7 7 6 5 5 7 8 8 7 6 5 5 5 5 6 5 4 4 3 3 3 3 3 3 4 4 4 4 4 4 4 3 3 2 1 1 1 2 4 5 5 5 5 4 3 2 3 6 9 12 15
Wind_Direction
294 295 297 297 295 293 292 293 293 293 292 290 287 285 283 281 279 276 272 270 269 269 269 268 267 266 264 261 259 258 257 255 252 250 248 248 248 248 249 251 253 254 253 252 252 251 251 251 250 251 251 249 249 248 246 243 242 241 240 238 237 238 240
291 294 296 296 293 292 292 292 293 293 293 293 292 290 287 284 282 279 277 274 271 270 270 269 268 267 266 265 263 260 258 257 256 253 249 247 247 248 248 249 251 253 252 252 252 252 251 251 250 250 251 251 251 250 248 246 244 242 241 239 237 237 238
289 292 294 293 291 291 290 291 292 293 294 295 295 294 291 288 284 282 280 277 274 272 271 269 269 268 267 267 267 264 262 259 257 256 254 250 247 246 246 247 249 251 251 251 252 253 251 251 250 249 249 249 249 249 248 248 247 246 245 243 240 239 239
290 292 292 290 289 289 290 290 292 293 294 295 296 295 293 289 285 283 282 279 277 275 273 270 269 268 268 268 267 266 265 262 259 257 256 254 250 247 245 244 246 248 250 249 251 252 252 251 250 248 247 247 246 246 247 248 248 248 248 247 245 243 243
292 292 290 288 288 289 289 290 292 293 293 294 295 295 293 288 285 284 283 282 280 278 275 272 270 268 268 269 268 267 265 264 262 259 257 255 254 251 247 244 243 245 247 248 249 251 251 250 249 248 246 245 245 245 245 246 248 248 248 248 247 246 245
290 289 288 287 287 288 289 291 292 293 293 294 294 294 291 288 285 284 284 283 283 282 279 276 273 270 269 269 269 268 267 265 263 261 258 256 254 253 250 247 245 243 244 245 247 249 250 250 248 247 245 244 243 243 243 243 244 246 246 246 246 246 245
283 284 285 286 286 287 289 291 293 292 292 292 292 291 289 287 285 284 284 284 284 283 282 279 276 273 271 269 269 268 267 266 265 262 259 257 254 253 251 250 248 246 244 244 244 246 249 250 249 247 246 244 242 241 241 241 241 242 243 244 244 244 244
281 283 284 284 285 287 289 292 292 291 290 290 290 289 288 286 286 285 284 283 283 283 282 280 278 275 272 269 268 268 268 267 266 264 261 257 255 253 251 249 248 247 246 246 245 246 247 249 250 249 248 246 244 242 241 240 240 241 242 242 243 243 243
283 284 285 286 286 288 290 291 290 288 288 288 288 288 287 286 287 287 285 284 284 284 283 281 279 276 273 270 268 268 268 268 267 265 262 258 255 253 251 249 246 245 245 247 247 248 248 249 250 251 250 249 248 245 243 241 240 240 240 241 241 241 242
284 286 287 288 288 289 289 288 287 287 288 288 288 287 286 286 286 286 286 285 285 284 284 283 281 277 274 271 269 267 267 267 267 265 263 259 256 252 250 249 246 243 243 244 246 247 248 250 250 250 251 252 252 250 248 245 242 241 240 240 241 241 242
286 287 288 288 288 288 288 287 287 288 288 288 287 287 285 284 284 284 285 285 285 285 285 284 283 280 276 272 270 268 267 266 266 265 264 260 257 253 250 248 246 243 241 242 243 243 245 247 248 249 250 251 252 252 252 250 248 245 244 243 242 242 243
288 289 288 288 288 287 287 287 287 287 287 286 286 284 284 283 282 283 285 286 287 287 285 284 283 281 279 276 272 269 268 266 265 264 263 261 258 254 250 248 246 243 240 240 241 241 241 242 244 245 247 248 250 251 252 252 251 251 250 248 246 245 245
289 289 289 288 287 287 286 286 286 286 286 286 285 285 285 284 284 285 287 287 287 286 285 283 282 281 279 277 274 270 267 265 264 263 262 261 258 255 251 248 245 243 241 239 239 240 240 240 241 242 244 245 247 249 250 250 251 252 252 252 251 250 250
289 289 289 288 287 287 287 287 287 287 287 287 288 288 287 287 287 287 288 287 286 285 283 281 279 278 276 274 272 271 267 264 262 261 260 259 258 256 253 249 246 244 242 240 239 239 239 240 240 241 242 243 245 246 248 249 250 251 252 253 253 253 253
288 288 289 289 289 288 288 289 288 289 289 290 290 289 288 288 287 287 286 284 283 281 280 279 277 275 273 272 271 270 268 265 262 260 259 258 256 255 253 251 248 246 244 242 241 241 240 241 241 242 243 243 244 246 247 248 249 250 251 252 253 254 254
287 288 288 288 289 289 289 289 289 290 290 290 290 288 287 286 285 283 281 279 278 277 277 276 275 273 272 272 271 269 267 265 263 261 259 257 256 255 254 252 250 248 246 245 244 243 243 243 243 243 244 245 246 246 247 249 250 251 252 253 254 255 256
287 287 287 288 288 289 289 289 289 289 289 289 287 285 283 282 280 279 278 277 276 276 275 274 274 273 273 272 270 268 265 263 262 261 260 259 256 255 254 252 251 250 248 247 246 245 245 244 244 244 244 245 246 248 249 250 251 252 254 255 256 257 257
286 287 288 288 288 288 288 289 288 288 288 287 284 281 280 280 280 279 279 278 277 275 274 273 272 271 270 267 267 266 264 262 261 261 262 260 256 253 252 252 251 250 249 248 247 247 246 246 245 244 244 244 245 247 248 250 251 252 253 254 255 256 257
288 288 288 288 288 288 288 288 288 288 288 286 283 281 282 283 282 281 279 277 275 273 272 270 267 265 264 263 263 263 262 263 267 268 262 258 255 251 250 250 250 250 249 248 248 247 247 246 246 245 244 244 244 245 246 248 249 250 251 252 253 255 256
289 289 289 289 289 289 289 289 289 289 289 286 283 283 285 285 283 280 278 277 275 272 269 267 265 263 262 261 262 263 264 266 269 266 260 256 253 251 250 250 249 249 249 248 248 248 247 247 246 246 245 244 244 245 245 246 248 249 250 251 252 253 255
291 291 291 291 291 290 290 290 291 290 289 286 285 287 289 288 285 283 280 277 273 269 268 267 265 263 260 258 259 264 270 272 255 248 253 256 255 252 250 249 248 248 249 248 248 248 248 247 246 246 246 246 246 246 247 247 247 248 249 250 251 253 254
296 296 295 294 293 292 292 292 292 291 290 288 290 293 296 294 290 284 277 272 268 267 267 266 264 262 259 259 260 265 272 271 252 242 246 251 253 252 249 248 248 248 248 248 248 247 247 246 246 245 245 246 247 248 248 249 249 249 250 251 253 254 255
304 303 301 299 297 295 294 294 294 294 294 292 293 298 302 298 290 279 271 268 267 267 268 267 265 263 261 262 265 266 267 263 255 247 244 245 248 249 247 246 247 247 248 247 247 246 245 245 245 244 244 244 246 247 248 250 251 251 252 253 254 255 257
309 308 306 303 301 299 298 299 299 297 296 295 296 299 302 290 278 272 270 271 271 271 270 268 265 265 265 266 267 267 265 262 257 251 246 244 243 243 244 245 246 246 247 247 247 246 246 246 246 246 246 246 246 247 249 250 251 251 252 253 254 255 258
314 313 311 308 305 303 302 302 301 300 299 298 298 301 301 284 268 265 267 270 273 274 274 270 268 268 270 270 269 267 265 262 256 250 245 242 239 237 237 238 240 242 243 243 244 244 243 243 243 243 243 243 244 245 245 247 248 250 251 252 254 256 260
318 317 314 310 308 306 304 302 301 299 299 299 301 303 303 294 280 272 269 269 271 272 273 273 273 273 271 269 267 264 259 253 246 238 233 229 226 223 221 221 222 224 225 226 226 225 224 224 224 226 228 230 233 238 242 247 251 255 259 262 265 268 270
321 319 315 312 311 309 306 302 298 296 295 296 298 299 300 300 296 285 275 271 271 272 272 272 272 270 266 261 255 248 239 229 219 211 205 199 194 191 189 189 188 188 191 194 195 198 202 206 210 218 225 233 240 249 255 261 266 270 273 275 276 277 279
321 318 314 313 312 310 306 300 294 292 291 290 291 293 296 302 302 288 276 273 273 274 270 267 265 260 252 242 230 215 201 190 182 174 168 165 164 165 166 168 170 175 181 187 193 200 208 215 224 233 243 252 259 265 270 273 276 279 283 286 288 290 293
317 314 312 313 313 309 303 296 293 291 288 287 288 290 294 300 298 284 275 273 272 269 264 259 253 241 224 208 192 177 167 161 158 156 155 157 159 162 168 175 181 188 196 203 210 217 223 230 237 244 250 256 261 264 267 272 278 283 290 295 299 302 306
311 308 308 309 310 309 303 295 292 289 286 287 287 288 292 297 289 275 269 268 264 257 248 239 223 202 185 172 162 156 153 153 154 156 158 161 166 174 184 193 201 208 214 219 223 229 234 237 240 242 246 251 256 261 268 277 286 293 299 302 305 307 310
304 302 303 304 306 308 304 297 291 288 288 289 287 286 290 290 278 270 267 261 248 233 218 202 182 168 161 156 153 152 154 156 158 159 164 173 183 193 199 206 212 217 221 223 224 227 230 233 237 239 241 247 256 269 281 290 296 301 305 307 309 312 314
301 296 296 299 303 306 303 297 292 291 293 293 288 287 290 287 275 269 260 242 222 201 183 169 160 157 155 155 157 158 158 159 161 169 180 189 194 193 194 197 201 204 207 210 212 214 218 220 224 231 243 261 276 286 293 299 303 306 310 312 315 317 321
301 293 290 292 298 303 303 299 294 292 295 294 286 283 286 291 288 269 236 214 194 176 166 161 158 159 161 163 163 161 160 165 175 185 189 187 183 181 178 177 177 178 181 182 179 179 184 193 212 253 279 290 296 301 304 308 312 314 316 320 324 327 330
301 294 285 283 288 295 299 300 296 291 290 289 281 273 275 281 278 243 205 189 176 167 166 169 170 169 168 169 168 168 175 185 188 185 181 173 167 163 157 153 152 152 150 147 147 149 148 156 262 292 303 306 308 311 312 313 315 318 322 328 332 333 332
299 295 284 276 278 283 288 292 292 287 283 279 270 263 264 261 238 206 188 178 173 174 178 186 188 182 176 175 177 181 189 192 185 176 166 157 150 144 140 135 131 127 125 123 121 120 113 98 340 321 321 319 316 315 313 313 316 320 329 334 332 330 328
292 291 285 277 276 278 281 284 284 280 276 269 254 248 250 238 207 191 184 180 183 191 196 201 202 195 187 185 186 189 192 189 178 165 153 145 141 136 130 125 122 118 118 117 114 110 99 50 1 346 336 330 327 322 319 320 327 337 335 331 329 328 326